Location: Bern�tre
(50.1974°N, 2.0915°E)
Time: 08:10:17
(UTC+00:00)

MOS 1 - Pass Details

Date: 18 September 2020
Orbit: 878 x 891 km, 99.1° (Epoch: 24 October)

Event Time Altitude Azimuth Distance (km) Brightness Sun altitude
Exits shadow 19:23:13 - 157° (SSE) 2,793 6.5 -14.2°
Reaches altitude 10° 19:23:50 10° 157° (SSE) 2,552 6.3 -14.3°
Maximum altitude 19:29:31 79° 72° (ENE) 913 4.3 -15.1°
Drops below altitude 10° 19:35:16 10° 346° (NNW) 2,573 7.2 -16.0°
Sets 19:37:40 0° 346° (NNW) 3,516 8.0 -16.3°
